Regional Weather Roundup
Issued by NWS

Home | Current Version | Previous Version | Graphics & Text | Print | Product List | Glossary On
Versions: 1 2 3 4 5 6 7 8 9 10 11 12 13 14 15 16 17 18 19 20 21 22 23 24 25 26 27 28 29 30 31 32 33 34 35 36 37 38 39 40 41 42 43 44 45 46 47 48 49 50
000
ASUS43 KDMX 090801
RWRIA

WEATHER ROUNDUP FOR IOWA
NATIONAL WEATHER SERVICE DES MOINES IA
200 AM CST FRI DEC 09 2016

NOTE: "FAIR" INDICATES FEW OR NO CLOUDS BELOW 12,000 FEET WITH NO
SIGNIFICANT WEATHER AND/OR OBSTRUCTIONS TO VISIBILITY.

* - THESE STATIONS ARE NOT NWS STATIONS...THUS NOT UNDER NWS
QUALITY CONTROL.  THEY ALSO DO NOT REPORT WEATHER SUCH
AS PRECIPITATION OR FOG.

IAZ001>003-012>014-020>022-031>034-043>046-090900-
   NORTHWEST IOWA

CITY           SKY/WX    TMP DP  RH WIND       PRES   REMARKS
CARROLL *      CLEAR     10   7  85 NW9       30.60S WCI  -2
CHEROKEE *     CLEAR      6   4  90 W3        30.60F
DENISON *      CLEAR      9   5  85 CALM      30.59F
LE MARS *      CLEAR      5   1  85 CALM      30.63S
ORANGE CITY *  PTCLDY     3   1  92 NW6       30.58S WCI  -8
SHELDON *      CLEAR      5   3  92 W6        30.57F WCI  -6
SIOUX CITY     CLEAR     10   3  73 NW10      30.65R WCI  -4
SPENCER        CLEAR      6   2  83 W17       30.58S WCI -13
STORM LAKE *   CLEAR      7   3  85 NW10      30.58S WCI  -8
$$

IAZ055>058-069>071-079>083-090>094-090900-
   SOUTHWEST IOWA

CITY           SKY/WX    TMP DP  RH WIND       PRES   REMARKS
ATLANTIC *     CLEAR     10   7  85 CALM      30.61S
AUDUBON *      CLEAR     10   5  79 NW6       30.59F WCI   1
CLARINDA *     CLEAR     10   7  85 N6        30.65S WCI   1
COUNCIL BLFS * CLEAR     10   7  85 NW9       30.62S WCI  -2
CRESTON *      CLEAR     10   5  79 NW8       30.60S WCI  -1
HARLAN  *      PTCLDY     9   5  85 NW3       30.65S
LAMONI         CLEAR     12   7  80 NW8       30.59S WCI   0
RED OAK *      CLEAR     10   7  85 CALM      30.64S
SHENANDOAH *   CLEAR     14   7  73 CALM      30.66R
$$

IAZ047>049-059>061-072>074-084-090900-
   CENTRAL IOWA

CITY           SKY/WX    TMP DP  RH WIND       PRES   REMARKS
AMES           MOCLDY    13  10  88 NW13      30.59R WCI  -2
ANKENY *       CLEAR     14   9  79 NW12      30.61R WCI   0
BOONE *        CLOUDY    10   7  85 NW12      30.57R WCI  -4
CHARITON *     CLEAR     12   9  85 NW8       30.59R WCI   1
DES MOINES     CLEAR     14   7  73 NW10      30.60R WCI   1
GRINNELL*      FLURRIES  18  12  78 NW14      30.56R WCI   4
KNOXVILLE *    CLOUDY    14   7  73 NW8       30.57R WCI   3
MARSHALLTOWN   LGT SNOW  16  11  80 NW14      30.56R WCI   2
NEWTON *       CLOUDY    18  10  73 NW12      30.56R WCI   5
PELLA *        MOCLDY    17  10  74 NW10      30.59R WCI   5
PERRY *          N/A     12   9  87 NW8       30.61R WCI   0
$$

IAZ004>006-015-016-023>025-035-036-090900-
   NORTH CENTRAL IOWA

CITY           SKY/WX    TMP DP  RH WIND       PRES   REMARKS
ALGONA *       CLOUDY    14   9  79 NW10G17   30.56R WCI   1
CLARION *      CLOUDY    14   9  79 N14       30.56R WCI  -1
ESTHERVILLE    PTCLDY     5   3  91 NW7       30.56R WCI  -7
FORT DODGE *   CLOUDY    10   1  67 W6        30.59R WCI   1
MASON CITY     CLOUDY    14   8  77 NW9       30.54F WCI   2
WEBSTER CITY * FLURRIES  14  10  85 W12       30.56R WCI   0
IOWA FALLS *   LGT SNOW  15  10  80 NW12      30.57R WCI   2
$$

IAZ007>011-017>019-026>030-037>042-050>054-066-090900-
   NORTHEAST IOWA

CITY           SKY/WX    TMP DP  RH WIND       PRES   REMARKS
CEDAR RAPIDS   CLOUDY    17  13  84 NW12      30.53R WCI   4
CHARLES CITY * FLURRIES  16  10  79 NW14G20   30.53R WCI   1
CLINTON *      CLOUDY    19  13  77 NW17      30.52R WCI   4
DECORAH *      CLOUDY    16  12  86 NW7G14    30.49R WCI   6
DUBUQUE        CLOUDY    17  12  80 NW12      30.48R WCI   4
MONTICELLO *   CLOUDY    18  10  73 NW13      30.52R WCI   4
OELWEIN *      CLOUDY    16  10  79 W15       30.52R WCI   1
WATERLOO       CLOUDY    16   8  71 W9        30.54R WCI   4
$$

IAZ064-065-067-068-078-090900-
   EAST CENTRAL IOWA

CITY           SKY/WX    TMP DP  RH WIND       PRES   REMARKS
DAVENPORT      CLOUDY    19  12  74 NW12      30.53R WCI   7
IOWA CITY      FLURRIES  20  12  71 NW14      30.57R WCI   7
MUSCATINE *    CLOUDY    21  10  63 NW15G22   30.57R WCI   8
QUAD CITIES    CLOUDY    22  11  62 W10       30.53R WCI  11
$$

IAZ062-063-075>077-085>089-095>099-090900-
   SOUTHEAST IOWA

CITY           SKY/WX    TMP DP  RH WIND       PRES   REMARKS
BURLINGTON     CLOUDY    21  13  71 NW10      30.55R WCI  10
FAIRFIELD *    CLOUDY    19   9  63 NW18      30.56R WCI   4
FORT MADISON * CLOUDY    21  12  68 NW10      30.57R WCI  10
KEOKUK *       CLOUDY    23  12  63 NW8G15    30.56R WCI  14
OSKALOOSA *    CLOUDY    19  12  76 NW14      30.57R WCI   5
CENTERVILLE *    N/A     12   9  85 W8        30.59R WCI   1
OTTUMWA        FLURRIES  20  11  68 NW12      30.56  WCI   8
WASHINGTON *   CLOUDY    21  12  68 NW14      30.57R WCI   8
$$

ABBREVIATIONS USED IN REMARKS
   TC - TEMPERATURES IN CELSIUS
  WCI - WIND CHILL INDEX
   HX - HEAT INDEX
  VSB - VISIBILITY
$$




USA.gov is the U.S. government's official web portal to all federal, state and local government web resources and services.